| time (UTC) | temp F | wind direction | speed MPH | gust MPH | rain 1hr in | rain 24hr in | rain mn in | humidity % | barometer mb |
| 20260507094552 | 53 | 334 | 0.0 | 0.0 | 0.00 | 0.00 | 0.00 | 90 | 1015.2 |
| 20260507093033 | 54 | 334 | 0.0 | 0.0 | 0.00 | 0.00 | 0.00 | 90 | 1015.3 |
| 20260507091533 | 54 | 334 | 0.0 | 0.0 | 0.00 | 0.00 | 0.00 | 90 | 1015.5 |
| 20260507090028 | 55 | 334 | 0.0 | 0.0 | 0.00 | 0.00 | 0.00 | 90 | 1015.7 |
| 20260507084528 | 55 | 334 | 0.0 | 0.0 | 0.00 | 0.00 | 0.00 | 90 | 1015.8 |
| 20260507083026 | 55 | 334 | 0.0 | 0.0 | 0.00 | 0.00 | 0.00 | 90 | 1016.0 |
| 20260507081526 | 55 | 334 | 0.0 | 0.0 | 0.00 | 0.00 | 0.00 | 88 | 1016.0 |
| 20260507080024 | 55 | 334 | 0.0 | 0.0 | 0.00 | 0.00 | 0.00 | 88 | 1016.1 |
| 20260507074522 | 55 | 334 | 0.0 | 0.0 | 0.00 | 0.00 | 0.00 | 87 | 1016.2 |
| 20260507073019 | 56 | 317 | 0.0 | 0.0 | 0.00 | 0.00 | 0.00 | 87 | 1016.1 |
| 20260507071519 | 56 | 296 | 0.0 | 0.0 | 0.00 | 0.00 | 0.00 | 86 | 1016.1 |
| 20260507070024 | 57 | 295 | 0.0 | 0.0 | 0.00 | 0.00 | 0.00 | 86 | 1016.3 |
| 20260507064515 | 57 | 295 | 0.0 | 0.0 | 0.00 | 0.00 | 0.00 | 87 | 1016.4 |
| 20260507063012 | 57 | 295 | 0.0 | 0.0 | 0.00 | 0.00 | 0.00 | 86 | 1016.5 |
| 20260507061512 | 58 | 295 | 0.0 | 0.0 | 0.00 | 0.00 | 0.00 | 85 | 1016.5 |
| 20260507060015 | 58 | 295 | 0.0 | 0.0 | 0.00 | 0.00 | 0.00 | 84 | 1016.4 |
| 20260507054511 | 59 | 295 | 0.0 | 0.0 | 0.00 | 0.00 | 0.00 | 82 | 1016.4 |
| 20260507053010 | 59 | 295 | 0.0 | 0.0 | 0.00 | 0.00 | 0.00 | 82 | 1016.4 |
| 20260507051513 | 60 | 295 | 0.0 | 0.0 | 0.00 | 0.00 | 0.00 | 81 | 1016.4 |
| 20260507050020 | 60 | 295 | 0.0 | 0.0 | 0.00 | 0.00 | 0.00 | 81 | 1016.3 |
| 20260507044509 | 60 | 295 | 0.0 | 0.0 | 0.00 | 0.00 | 0.00 | 81 | 1016.3 |
| 20260507043007 | 61 | 295 | 0.0 | 0.0 | 0.00 | 0.00 | 0.00 | 80 | 1016.1 |
| 20260507041506 | 61 | 292 | 0.0 | 0.0 | 0.00 | 0.00 | 0.00 | 79 | 1016.1 |
| 20260507040006 | 62 | 5 | 0.0 | 0.0 | 0.00 | 0.00 | 0.00 | 77 | 1015.9 |
| 20260507034505 | 62 | 322 | 0.0 | 0.0 | 0.00 | 0.00 | 0.00 | 75 | 1015.8 |
| 20260507033005 | 63 | 313 | 0.0 | 0.0 | 0.00 | 0.00 | 0.00 | 74 | 1015.6 |
| 20260507031504 | 63 | 311 | 0.0 | 0.0 | 0.00 | 0.00 | 0.00 | 73 | 1015.5 |
| 20260507030005 | 64 | 308 | 0.0 | 0.0 | 0.00 | 0.00 | 0.00 | 72 | 1015.3 |
| 20260507024507 | 64 | 317 | 0.0 | 0.0 | 0.00 | 0.00 | 0.00 | 70 | 1015.2 |
| 20260507023004 | 66 | 305 | 0.0 | 0.0 | 0.00 | 0.00 | 0.00 | 67 | 1015.2 |
| 20260507021503 | 67 | 283 | 0.0 | 0.0 | 0.00 | 0.00 | 0.00 | 64 | 1015.1 |
| 20260507020003 | 68 | 311 | 0.0 | 0.0 | 0.00 | 0.00 | 0.00 | 62 | 1015.0 |
| 20260507014503 | 69 | 329 | 0.0 | 0.0 | 0.00 | 0.00 | 0.00 | 60 | 1014.9 |
| 20260507013104 | 69 | 288 | 0.0 | 0.0 | 0.00 | 0.00 | 0.00 | 58 | 1014.9 |
| 20260507011600 | 70 | 290 | 0.0 | 0.0 | 0.00 | 0.00 | 0.00 | 58 | 1014.8 |
| 20260507010059 | 71 | 290 | 0.0 | 0.0 | 0.00 | 0.00 | 0.00 | 57 | 1014.8 |
| 20260507004558 | 71 | 296 | 0.0 | 0.0 | 0.00 | 0.00 | 0.00 | 55 | 1014.7 |
| 20260507003101 | 72 | 294 | 0.0 | 0.0 | 0.00 | 0.00 | 0.00 | 56 | 1014.6 |
| 20260507001559 | 71 | 283 | 0.0 | 0.0 | 0.00 | 0.00 | 0.00 | 55 | 1014.6 |
| 20260507000054 | 72 | 259 | 0.0 | 0.0 | 0.00 | 0.00 | 0.00 | 58 | 1014.6 |
| 20260506234603 | 72 | 281 | 0.0 | 0.0 | 0.00 | 0.00 | 0.00 | 57 | 1014.4 |
| 20260506233055 | 72 | 302 | 0.0 | 0.0 | 0.00 | 0.00 | 0.00 | 60 | 1014.4 |
| 20260506231554 | 72 | 339 | 0.0 | 0.0 | 0.00 | 0.00 | 0.00 | 60 | 1014.5 |
| 20260506230048 | 72 | 292 | 0.0 | 0.0 | 0.00 | 0.00 | 0.00 | 59 | 1014.6 |
| 20260506224547 | 72 | 302 | 0.0 | 0.0 | 0.00 | 0.00 | 0.00 | 59 | 1014.5 |
| 20260506223044 | 72 | 286 | 0.0 | 0.0 | 0.00 | 0.00 | 0.00 | 59 | 1014.7 |
| 20260506221542 | 72 | 292 | 0.0 | 0.0 | 0.00 | 0.00 | 0.00 | 59 | 1014.8 |
| 20260506220041 | 72 | 327 | 0.0 | 0.0 | 0.00 | 0.00 | 0.00 | 59 | 1014.9 |
| 20260506214544 | 72 | 286 | 0.0 | 0.0 | 0.00 | 0.00 | 0.00 | 58 | 1014.9 |
| 20260506213040 | 73 | 274 | 0.0 | 0.0 | 0.00 | 0.00 | 0.00 | 57 | 1015.1 |
| 20260506211538 | 74 | 304 | 0.0 | 0.0 | 0.00 | 0.00 | 0.00 | 56 | 1015.2 |
| 20260506210037 | 73 | 273 | 0.0 | 0.0 | 0.00 | 0.00 | 0.00 | 56 | 1015.1 |
| 20260506204537 | 73 | 280 | 0.0 | 0.0 | 0.00 | 0.00 | 0.00 | 57 | 1015.3 |
| 20260506203038 | 74 | 293 | 0.0 | 0.0 | 0.00 | 0.00 | 0.00 | 56 | 1015.3 |
| 20260506201537 | 74 | 254 | 0.0 | 0.0 | 0.00 | 0.00 | 0.00 | 54 | 1015.3 |
| 20260506200030 | 74 | 267 | 0.0 | 0.0 | 0.00 | 0.00 | 0.00 | 54 | 1015.4 |
| 20260506194526 | 74 | 219 | 0.0 | 0.0 | 0.00 | 0.00 | 0.00 | 54 | 1015.6 |
| 20260506193022 | 73 | 319 | 0.0 | 0.0 | 0.00 | 0.00 | 0.00 | 54 | 1015.7 |
| 20260506191522 | 73 | 263 | 0.0 | 0.0 | 0.00 | 0.00 | 0.00 | 53 | 1015.9 |
| 20260506190018 | 72 | 278 | 0.0 | 0.0 | 0.00 | 0.00 | 0.00 | 54 | 1016.1 |
| 20260506184516 | 72 | 294 | 0.0 | 0.0 | 0.00 | 0.00 | 0.00 | 54 | 1016.2 |
| 20260506183012 | 71 | 241 | 0.0 | 0.0 | 0.00 | 0.00 | 0.00 | 55 | 1016.4 |
| 20260506181508 | 70 | 198 | 0.0 | 0.0 | 0.00 | 0.00 | 0.00 | 58 | 1016.6 |
| 20260506180007 | 68 | 338 | 0.0 | 0.0 | 0.00 | 0.00 | 0.00 | 60 | 1016.8 |
| 20260506174502 | 68 | 317 | 0.0 | 0.0 | 0.00 | 0.06 | 0.00 | 61 | 1016.9 |
| 20260506173129 | 67 | 42 | 0.0 | 0.0 | 0.00 | 0.06 | 0.00 | 64 | 1017.1 |
| 20260506171601 | 65 | 355 | 0.0 | 0.0 | 0.00 | 0.06 | 0.00 | 67 | 1017.2 |
| 20260506170049 | 63 | 309 | 0.0 | 0.0 | 0.00 | 0.06 | 0.00 | 70 | 1017.2 |
| 20260506164554 | 62 | 288 | 0.0 | 0.0 | 0.00 | 0.06 | 0.00 | 74 | 1017.1 |
| 20260506163043 | 61 | 265 | 0.0 | 0.0 | 0.00 | 0.06 | 0.00 | 79 | 1017.3 |
| 20260506161538 | 59 | 140 | 0.0 | 0.0 | 0.00 | 0.06 | 0.00 | 86 | 1017.3 |
| 20260506160033 | 57 | 220 | 0.0 | 0.0 | 0.00 | 0.06 | 0.00 | 90 | 1017.3 |
| 20260506154530 | 55 | 184 | 0.0 | 0.0 | 0.00 | 0.06 | 0.00 | 92 | 1017.4 |
| 20260506153025 | 54 | 202 | 0.0 | 0.0 | 0.00 | 0.06 | 0.00 | 92 | 1017.4 |
| 20260506151527 | 53 | 252 | 0.0 | 0.0 | 0.00 | 0.06 | 0.00 | 93 | 1017.6 |
| 20260506150023 | 52 | 248 | 0.0 | 0.0 | 0.00 | 0.06 | 0.00 | 92 | 1017.6 |
| 20260506144519 | 52 | 243 | 0.0 | 0.0 | 0.00 | 0.11 | 0.00 | 92 | 1017.6 |
| 20260506143024 | 51 | 245 | 0.0 | 0.0 | 0.00 | 0.11 | 0.00 | 92 | 1017.5 |
| 20260506141517 | 51 | 252 | 0.0 | 0.0 | 0.00 | 0.11 | 0.00 | 92 | 1017.5 |
| 20260506140016 | 50 | 287 | 0.0 | 0.0 | 0.00 | 0.11 | 0.00 | 92 | 1017.5 |
| 20260506134513 | 50 | 286 | 0.0 | 0.0 | 0.00 | 0.11 | 0.00 | 91 | 1017.3 |
| 20260506133009 | 49 | 286 | 0.0 | 0.0 | 0.00 | 0.11 | 0.00 | 91 | 1017.2 |
| 20260506131507 | 49 | 286 | 0.0 | 0.0 | 0.00 | 0.11 | 0.00 | 91 | 1017.0 |
| 20260506130007 | 49 | 286 | 0.0 | 0.0 | 0.00 | 0.11 | 0.00 | 91 | 1016.9 |
| 20260506124505 | 49 | 286 | 0.0 | 0.0 | 0.00 | 0.14 | 0.00 | 90 | 1016.8 |
| 20260506123003 | 49 | 286 | 0.0 | 0.0 | 0.00 | 0.14 | 0.00 | 90 | 1016.7 |
| 20260506121502 | 49 | 286 | 0.0 | 0.0 | 0.00 | 0.14 | 0.00 | 90 | 1016.7 |
| 20260506120002 | 49 | 286 | 0.0 | 0.0 | 0.00 | 0.14 | 0.00 | 90 | 1016.6 |
| 20260506114500 | 50 | 286 | 0.0 | 0.0 | 0.00 | 0.14 | 0.00 | 90 | 1016.7 |
| 20260506113059 | 50 | 286 | 0.0 | 0.0 | 0.00 | 0.14 | 0.00 | 90 | 1016.6 |
| 20260506111558 | 50 | 286 | 0.0 | 0.0 | 0.00 | 0.14 | 0.00 | 89 | 1016.5 |
| 20260506104557 | 50 | 286 | 0.0 | 0.0 | 0.00 | 0.16 | 0.00 | 89 | 1016.5 |
| 20260506103058 | 50 | 286 | 0.0 | 0.0 | 0.00 | 0.16 | 0.00 | 89 | 1016.4 |
| 20260506101559 | 50 | 286 | 0.0 | 0.0 | 0.00 | 0.16 | 0.00 | 88 | 1016.4 |
| 20260506100109 | 51 | 286 | 0.0 | 0.0 | 0.00 | 0.16 | 0.00 | 88 | 1016.2 |